Wetbulb
52.83 52.72 52.52 52.50 52.68 52.79 52.64 52.73 52.73 52.83 52.86 53.11 53.31 53.10 53.09 53.07 53.03 52.84 51.70 55.14 51.05 45.31 47.50 49.25 48.02 44.16 44.50 45.85 41.41 47.85 49.57 51.62 52.16 51.04 51.65 51.35 50.87 51.85 51.66 54.03 52.85 51.67 51.54 50.80 52.82 51.84 51.29 61.80 61.45 59.28 62.56 64.08 64.10 65.09
52.64 52.46 52.41 52.48 52.70 52.77 52.67 52.60 52.62 52.65 52.75 52.78 52.81 52.86 53.07 53.03 53.04 52.51 49.47 56.06 56.76 47.84 46.55 51.01 50.81 52.20 50.61 49.68 44.64 45.46 44.46 42.69 52.88 51.98 52.28 53.48 51.95 53.05 52.60 49.14 56.09 51.74 54.57 53.02 53.27 54.22 61.42 63.02 62.15 64.32 64.56 64.34 65.08 65.75
52.42 52.39 52.33 52.29 52.56 52.73 52.52 52.48 52.58 52.52 52.38 52.30 52.54 52.58 52.90 52.87 52.96 52.40 50.45 53.28 53.13 45.29 44.56 46.60 46.98 51.43 53.20 52.90 52.45 42.75 45.69 48.08 49.47 46.90 55.57 55.26 52.62 54.97 50.64 51.91 54.72 57.07 58.84 55.87 55.50 57.09 58.69 60.84 62.66 63.90 65.20 64.71 65.81 66.71
52.17 52.06 52.23 52.10 52.37 52.46 52.54 52.72 52.79 52.62 52.40 52.36 52.41 52.49 52.87 52.95 53.25 52.71 50.32 52.35 51.33 44.98 38.65 43.76 51.62 50.26 54.42 54.19 53.51 51.05 48.15 49.60 47.63 49.68 53.41 53.46 53.94 58.53 54.91 55.10 55.00 57.69 58.83 57.25 56.51 58.79 59.08 60.00 62.69 64.22 64.81 65.20 65.71 67.70
51.99 51.92 52.06 52.12 52.13 52.23 52.37 52.50 52.56 52.56 52.35 52.40 52.48 52.46 52.38 52.75 53.47 53.03 52.42 52.64 52.61 44.80 38.82 41.67 46.84 50.54 52.54 52.88 52.49 51.26 48.94 47.48 45.56 44.84 50.42 54.01 56.33 55.74 58.18 58.65 58.34 58.74 59.18 56.00 55.33 60.04 63.95 63.59 62.57 64.20 64.41 64.70 66.38 67.09
51.95 52.08 52.11 52.00 52.04 52.17 52.31 52.39 52.23 52.35 52.41 52.62 52.83 52.97 52.79 52.87 53.22 51.50 47.81 52.49 51.39 49.88 40.31 37.04 47.90 49.52 51.89 53.38 50.57 50.31 49.92 50.44 46.69 47.06 50.08 55.96 58.87 54.76 54.38 54.27 60.90 62.43 62.45 62.52 61.12 62.33 60.63 61.86 62.95 63.72 63.89 65.56 66.00 66.61
51.95 52.01 52.05 51.86 52.04 52.12 52.23 52.37 52.66 52.97 53.12 53.47 53.51 53.49 53.45 53.12 52.80 47.81 46.73 49.77 51.94 50.96 41.08 37.75 40.17 49.95 53.94 53.13 51.64 51.52 51.19 49.65 48.48 46.23 47.91 54.26 56.28 56.98 55.38 53.46 58.37 61.11 64.96 65.69 66.42 66.17 65.29 66.40 63.22 63.34 63.59 64.15 65.51 68.15
51.69 51.98 51.99 51.90 51.98 52.08 52.23 52.56 52.62 52.79 52.60 53.06 53.14 53.21 53.05 52.56 51.36 48.20 53.47 50.99 51.82 47.12 43.74 37.43 38.53 45.82 54.18 50.36 48.92 54.11 49.19 50.00 48.45 49.32 53.89 53.76 56.41 54.60 53.46 57.75 59.33 63.79 64.86 65.44 65.86 65.74 65.87 66.93 67.25 66.40 64.91 63.36 65.41 67.67
51.88 52.13 52.06 52.16 52.34 52.39 52.49 52.50 52.63 53.00 53.11 52.94 52.89 52.53 52.27 51.14 48.61 48.88 52.61 52.13 51.75 46.90 40.68 40.51 37.65 37.68 51.40 50.03 51.93 50.65 51.96 48.18 52.71 49.32 49.82 53.86 54.00 51.69 56.52 58.61 62.86 63.50 64.24 65.29 67.08 67.15 66.96 66.35 67.14 68.34 68.76 67.86 65.43 67.58
51.86 52.16 52.21 52.29 52.12 52.68 52.58 52.66 52.91 53.10 52.94 52.45 51.23 50.80 46.02 49.71 54.02 53.12 48.87 45.96 44.03 45.05 44.68 40.83 43.49 41.15 49.31 48.65 46.90 49.25 53.32 50.45 45.45 47.63 53.40 50.37 51.69 57.94 60.55 63.74 64.86 65.18 65.69 66.74 65.58 65.08 65.87 66.01 65.87 67.06 68.08 68.51 68.03 70.78
51.49 51.97 52.28 52.08 52.40 52.56 52.52 52.69 52.87 52.57 51.56 50.71 46.19 49.42 53.35 51.60 51.34 47.86 43.95 43.27 43.60 42.68 45.37 44.01 45.06 43.32 50.27 45.54 46.30 49.68 51.01 49.01 44.54 47.86 49.86 50.37 51.03 56.48 61.58 63.95 65.52 66.00 66.53 67.73 67.46 67.80 68.22 69.40 68.29 67.66 68.60 70.59 69.54 72.91
51.57 52.39 52.07 52.25 52.44 52.29 52.42 52.64 52.41 52.46 51.55 48.52 46.96 48.21 52.96 49.94 45.98 42.58 43.29 45.68 45.48 44.20 47.56 44.53 45.79 48.00 48.76 50.06 46.58 48.29 47.50 50.07 44.60 53.25 48.83 47.48 58.05 62.27 63.37 63.51 64.16 66.55 67.14 66.95 70.55 71.48 71.54 70.51 71.93 70.12 70.15 71.52 73.10 74.45
51.89 52.22 52.06 52.06 51.99 51.98 52.18 52.15 52.18 52.12 51.20 50.39 45.62 45.63 47.75 47.55 39.04 39.63 38.97 42.54 44.87 49.51 50.03 49.87 47.03 49.47 48.70 47.41 45.55 47.12 45.73 47.06 54.31 47.85 47.33 54.75 59.90 61.29 63.03 63.86 65.35 67.11 67.45 68.83 70.89 71.90 72.41 72.39 73.20 72.64 72.65 73.99 74.57 74.88
51.90 51.96 52.00 51.91 51.97 51.74 51.92 51.05 51.27 51.44 50.01 42.39 41.51 37.46 41.79 41.35 43.46 44.77 45.43 46.74 52.49 53.23 50.81 50.80 49.15 47.55 48.99 44.12 44.36 44.50 50.21 52.10 45.92 46.59 49.43 56.85 57.86 58.97 61.28 64.03 65.56 64.12 67.62 68.16 70.03 70.71 71.69 72.42 72.97 73.61 74.21 74.55 74.42 74.45
51.95 51.90 51.70 51.26 51.90 52.15 51.23 50.94 50.87 50.92 46.13 40.14 41.09 37.25 41.81 47.10 48.38 49.46 50.20 49.76 51.89 53.39 52.01 50.39 52.24 49.57 47.39 46.27 47.74 47.22 45.33 44.93 47.86 49.53 52.45 55.17 58.85 59.50 61.66 64.25 64.30 63.37 65.49 67.38 68.73 69.39 70.92 71.36 72.10 72.59 74.01 74.52 74.90 74.87
51.91 51.16 52.57 52.06 51.56 51.06 50.93 51.47 50.87 49.03 43.74 40.28 40.31 41.25 46.35 46.41 47.20 49.17 49.25 48.98 53.19 52.21 52.94 52.49 49.59 48.84 46.18 47.62 46.50 45.51 46.03 45.58 51.46 53.49 54.83 57.18 59.11 60.09 61.56 63.46 65.07 64.59 64.40 65.17 68.86 69.46 70.86 71.20 71.16 71.64 72.99 73.72 74.09 74.38
50.79 51.85 51.90 51.26 50.66 50.82 51.19 49.37 47.23 43.24 41.74 40.93 41.32 44.89 43.98 45.22 44.93 47.91 50.15 50.28 54.79 51.20 47.86 49.07 45.79 45.76 52.04 47.54 45.72 49.39 48.48 52.19 52.30 52.85 56.91 58.21 59.03 59.83 61.35 62.18 63.63 65.04 66.07 66.18 67.86 70.23 71.00 71.80 71.65 70.71 70.64 72.31 72.57 72.55
50.94 52.61 51.93 51.63 51.39 51.41 50.15 47.94 44.65 42.92 40.36 44.07 40.93 42.44 43.30 44.09 42.93 43.44 48.12 50.93 50.86 50.43 50.47 48.03 50.60 47.55 46.50 43.73 47.55 53.98 55.98 55.39 54.74 55.25 56.65 58.41 58.51 59.85 59.72 60.23 61.82 62.94 64.19 65.66 67.30 68.31 69.12 70.08 70.14 69.91 70.07 70.01 70.27 71.28
51.71 52.64 51.18 51.28 51.26 49.32 46.07 45.11 45.56 41.92 43.97 46.41 45.18 44.07 43.69 44.28 46.44 46.89 45.39 47.11 51.22 52.86 50.82 50.22 46.88 46.64 48.00 51.74 51.87 54.06 56.95 55.88 53.32 55.45 55.21 57.22 58.10 57.95 58.47 59.48 60.96 62.10 62.97 64.20 64.43 67.10 68.24 69.47 69.27 69.65 70.74 71.27 70.27 70.04
50.85 50.97 51.59 52.25 51.99 48.42 43.46 44.53 47.26 44.15 42.42 44.21 44.60 42.57 43.06 43.75 46.06 46.13 46.26 45.78 45.58 48.75 47.95 46.66 47.93 50.89 51.65 54.22 55.33 55.52 60.20 61.98 57.22 53.86 54.11 55.59 56.45 57.62 57.42 57.41 57.58 61.42 58.34 61.56 63.16 58.35 65.03 66.04 67.10 68.61 69.05 68.82 70.16 70.20
50.93 52.33 51.39 51.51 50.98 48.33 45.21 45.46 45.27 45.29 44.67 42.49 44.94 43.75 43.17 44.79 43.75 44.12 44.66 46.25 43.01 42.20 42.77 50.09 51.70 52.97 55.36 56.33 57.02 57.83 59.64 63.14 61.00 57.34 56.51 54.18 56.85 56.53 56.38 56.56 57.60 58.10 58.46 59.40 59.80 61.03 60.29 62.93 65.21 66.01 66.49 68.16 69.51 70.26
52.77 50.15 51.59 51.84 46.81 45.89 44.47 48.66 46.60 46.97 43.97 44.39 44.40 45.01 43.35 43.75 44.10 44.46 45.48 42.42 42.38 43.97 46.95 49.20 50.81 52.61 53.13 54.79 55.71 57.10 58.67 61.21 61.85 55.69 52.82 52.42 56.55 55.76 55.92 55.39 55.44 55.19 57.28 58.60 60.19 59.65 60.43 63.20 63.59 64.05 64.98 66.58 63.93 68.02
51.09 51.03 50.71 48.35 44.09 42.30 42.53 48.54 43.44 44.27 41.08 43.63 45.60 43.67 44.43 45.36 46.54 46.56 43.21 44.59 45.92 49.30 49.12 47.99 48.29 50.31 52.45 55.06 56.02 57.21 57.53 58.56 58.74 58.89 58.50 58.81 59.18 58.79 56.84 57.21 56.78 56.85 56.31 58.46 60.28 59.88 60.59 55.81 60.82 63.44 64.56 65.15 66.13 67.55
49.46 49.09 46.42 45.09 44.25 42.07 48.46 44.78 45.18 43.88 44.66 44.17 44.09 43.90 46.69 47.25 46.41 44.63 43.20 46.72 49.16 51.44 51.47 51.85 51.53 49.60 50.54 51.51 53.51 54.75 56.54 56.85 56.71 57.61 58.22 57.51 56.19 56.38 56.63 56.26 57.16 57.93 57.93 58.57 59.64 61.06 62.23 63.26 56.26 63.54 63.88 62.39 63.23 65.26
43.18 43.49 43.85 38.20 47.30 45.56 43.74 44.31 45.11 44.83 43.46 46.21 45.92 46.14 47.69 47.75 45.24 43.87 43.75 48.55 50.37 51.00 51.85 52.58 51.34 51.06 49.08 49.71 52.84 54.67 57.52 57.48 55.16 54.21 56.10 56.67 56.10 56.30 56.43 56.67 57.82 58.83 59.98 59.15 59.09 61.32 61.45 61.80 60.75 60.86 62.57 61.79 61.59 61.75
39.84 46.61 44.44 46.43 46.61 44.71 44.91 43.69 45.51 45.79 46.51 46.00 46.83 48.87 50.89 48.43 44.26 42.65 46.08 49.12 50.26 51.40 51.75 51.57 49.26 50.12 49.84 51.11 49.72 52.24 54.07 57.44 57.86 55.67 56.36 57.04 56.76 56.36 55.92 55.85 56.76 59.14 62.86 62.72 62.71 61.24 60.65 60.25 59.96 59.13 59.17 58.45 50.10 59.05
40.60 44.36 48.79 51.28 48.19 47.44 45.85 47.51 48.07 46.92 45.97 46.04 49.94 50.71 48.32 43.25 42.12 45.75 49.71 50.63 51.22 53.24 54.76 53.78 53.37 51.38 51.32 52.20 51.93 57.09 58.21 57.99 58.05 58.10 59.63 59.73 60.42 60.64 60.19 58.20 58.20 61.49 64.28 64.20 63.88 62.61 60.23 59.27 57.37 57.34 56.81 57.16 57.57 56.88
48.43 48.33 43.58 47.45 46.60 48.75 45.24 46.67 47.83 47.06 48.63 53.18 52.92 48.04 44.61 44.77 44.26 49.09 51.48 53.66 54.90 55.55 55.05 54.54 54.36 54.52 54.28 55.81 59.56 59.80 60.72 59.10 58.67 59.99 60.50 61.03 61.12 61.17 61.41 61.90 61.68 47.71 60.80 60.21 59.10 61.85 60.60 58.24 56.44 55.41 54.94 54.27 54.44 54.61
44.51 47.74 47.42 43.88 46.02 48.24 50.37 49.48 49.16 53.16 54.00 54.17 51.37 48.57 49.70 53.63 54.22 52.22 53.63 55.00 57.13 56.83 55.57 53.04 54.07 55.23 55.03 55.67 56.37 56.99 57.96 58.27 56.59 53.95 53.17 52.52 53.72 54.98 57.71 58.09 56.72 60.15 61.67 58.65 44.09 53.11 59.65 58.61 57.08 55.33 54.56 53.91 54.38 54.28
47.35 54.12 47.02 47.75 48.26 48.73 51.30 52.17 52.29 56.08 58.35 57.99 57.58 56.19 56.35 57.66 58.94 58.75 58.11 58.60 56.74 56.72 56.49 54.67 53.52 52.96 52.83 54.33 53.70 54.23 56.25 57.12 57.24 56.01 53.25 52.25 53.01 55.33 55.89 55.12 54.74 54.62 56.93 56.78 55.85 56.83 47.21 55.19 52.29 56.66 53.90 55.18 55.75 54.92
53.25 50.97 49.26 49.71 49.96 53.56 53.37 56.00 55.06 59.25 58.84 55.36 57.43 55.36 55.20 57.07 57.54 59.64 59.07 58.09 57.05 55.68 54.89 54.69 56.25 56.08 54.03 52.89 53.35 53.65 54.36 56.09 55.30 55.57 55.25 55.83 56.21 55.99 56.16 55.31 55.26 54.52 54.96 54.49 53.81 52.31 52.78 53.36 55.50 54.86 55.78 56.87 56.46 55.32
50.58 47.53 48.88 48.32 50.28 53.06 54.89 53.56 52.80 54.48 54.85 53.80 54.02 56.57 56.72 55.41 53.33 57.30 60.22 57.46 56.42 55.84 51.88 54.44 52.59 52.52 57.15 57.53 57.85 57.37 51.24 57.24 55.33 55.79 55.75 55.39 55.49 56.56 57.31 56.51 56.32 56.72 55.56 53.18 52.86 52.84 52.99 53.14 53.23 53.17 55.56 55.87 56.48 56.10
51.93 53.26 52.70 52.19 52.58 51.77 52.47 52.53 51.05 50.72 51.92 51.46 52.13 54.13 56.36 55.73 52.95 57.82 61.15 61.58 58.41 57.06 56.92 57.42 57.79 57.06 55.35 55.10 58.27 58.70 55.53 59.85 54.49 45.99 47.55 47.92 48.74 51.02 56.42 57.17 57.51 57.83 56.19 55.96 55.90 54.51 54.59 54.92 54.89 55.99 56.41 56.37 56.61 56.99
MSLP
1022.33 1022.21 1022.02 1021.74 1021.53 1021.34 1021.18 1021.00 1020.69 1020.50 1020.26 1019.97 1019.84 1019.58 1019.38 1019.26 1019.10 1018.67 1016.77 1016.25 1016.81 1016.27 1014.77 1014.02 1013.94 1013.47 1013.26 1012.75 1012.47 1011.23 1010.31 1007.71 1005.47 1003.19 1000.92 998.97 997.38 995.84 995.04 994.45 994.38 994.47 994.42 993.77 993.87 993.11 992.20 991.49 991.02 990.80 991.65 991.93 991.94 992.11
1021.83 1021.75 1021.62 1021.46 1021.21 1020.94 1020.79 1020.61 1020.49 1020.20 1019.97 1019.82 1019.49 1019.23 1019.04 1018.91 1018.82 1018.74 1017.03 1016.35 1016.92 1017.08 1015.49 1014.75 1014.11 1013.14 1012.70 1012.45 1012.74 1013.17 1012.37 1011.72 1008.72 1005.52 1002.15 999.64 997.23 995.65 994.46 993.25 993.41 993.94 993.43 993.37 992.98 992.46 992.62 991.85 991.16 990.83 991.17 991.74 991.90 991.98
1021.36 1021.33 1021.19 1020.98 1020.79 1020.49 1020.32 1020.10 1019.78 1019.75 1019.60 1019.30 1019.12 1018.74 1018.58 1018.50 1018.40 1018.38 1016.94 1016.11 1017.03 1016.79 1015.29 1013.48 1012.21 1011.79 1011.82 1011.67 1011.95 1012.47 1012.70 1012.84 1010.45 1010.49 1004.29 1000.52 997.52 995.66 993.80 993.03 992.52 993.23 993.65 993.11 993.24 992.68 992.44 992.21 991.56 990.95 991.10 991.50 992.29 992.53
1021.01 1020.76 1020.60 1020.43 1020.27 1020.11 1019.80 1019.62 1019.29 1019.15 1019.05 1018.84 1018.62 1018.30 1018.12 1017.92 1017.83 1017.79 1016.58 1015.65 1016.48 1016.64 1015.47 1011.76 1011.02 1010.37 1010.03 1009.94 1009.86 1010.90 1012.11 1012.40 1012.30 1010.02 1005.59 1001.58 998.45 996.01 994.42 993.36 992.41 992.02 993.08 992.83 992.90 992.64 992.47 992.08 991.50 990.97 990.91 991.72 992.18 993.17
1020.56 1020.34 1020.17 1020.01 1019.83 1019.59 1019.49 1019.23 1018.81 1018.56 1018.42 1018.23 1018.01 1017.83 1017.58 1017.45 1017.26 1016.91 1015.68 1015.14 1015.05 1016.43 1015.29 1012.71 1011.43 1009.17 1009.09 1008.69 1008.64 1009.87 1011.30 1012.56 1012.61 1010.81 1006.25 1001.88 999.62 998.06 995.88 994.67 992.80 991.70 991.52 991.92 991.47 992.34 991.91 991.75 991.82 991.60 991.07 991.29 992.08 993.05
1019.84 1019.83 1019.74 1019.47 1019.21 1019.04 1018.75 1018.65 1018.34 1018.03 1017.78 1017.55 1017.34 1017.15 1016.96 1016.92 1016.78 1015.94 1014.19 1013.92 1014.90 1015.76 1015.86 1014.03 1011.16 1008.41 1007.17 1006.81 1008.08 1008.79 1010.26 1011.81 1012.36 1010.56 1007.40 1003.07 1000.41 1000.13 997.21 995.52 994.20 992.72 991.96 991.81 991.79 991.93 992.02 991.97 991.87 991.80 991.63 991.42 991.65 992.32
1019.62 1019.32 1019.03 1019.00 1018.79 1018.35 1018.11 1017.92 1017.64 1017.33 1017.07 1016.79 1016.53 1016.34 1016.19 1016.21 1016.02 1015.37 1014.80 1014.72 1015.17 1015.93 1015.69 1013.83 1011.15 1008.08 1006.33 1006.20 1007.08 1008.15 1009.81 1010.91 1011.74 1010.72 1007.85 1004.36 1001.73 1000.86 998.89 996.28 994.71 993.91 993.50 993.73 993.77 993.77 993.27 992.45 991.60 991.45 991.38 991.50 991.74 992.05
1019.28 1019.00 1018.93 1018.42 1018.19 1017.98 1017.51 1017.21 1016.90 1016.61 1016.30 1016.03 1015.81 1015.59 1015.39 1015.42 1015.53 1014.74 1013.24 1014.62 1015.24 1015.54 1015.26 1013.82 1011.26 1008.78 1007.07 1007.05 1007.56 1008.46 1009.48 1010.38 1010.53 1009.27 1006.39 1004.10 1002.42 1001.58 999.05 997.09 995.63 995.45 995.32 994.83 994.64 994.54 993.85 992.92 992.15 991.60 991.15 991.02 991.08 991.83
1018.65 1018.59 1018.57 1018.18 1017.78 1017.51 1017.01 1016.61 1016.19 1015.83 1015.51 1015.20 1015.00 1014.81 1014.44 1014.22 1013.47 1013.54 1013.83 1014.57 1014.98 1015.28 1014.06 1012.83 1011.21 1009.62 1008.49 1007.91 1007.93 1008.53 1008.59 1008.63 1008.54 1007.68 1005.76 1003.67 1001.73 999.82 998.41 997.19 996.45 996.23 996.21 995.68 995.11 994.85 994.13 993.39 992.91 992.31 991.80 990.85 990.28 991.45
1018.21 1018.10 1017.94 1017.57 1017.39 1017.04 1016.56 1016.12 1015.58 1015.16 1014.71 1014.38 1014.33 1013.04 1012.52 1012.61 1012.91 1013.51 1014.15 1014.16 1014.29 1013.77 1013.21 1011.71 1010.88 1009.48 1008.10 1007.87 1008.05 1007.59 1006.71 1006.40 1006.32 1005.48 1004.38 1002.87 1000.43 999.27 998.16 997.61 997.36 996.99 996.64 996.30 995.52 994.71 994.02 993.41 992.97 992.36 991.81 991.08 990.80 991.84
1017.60 1017.52 1017.38 1017.08 1016.95 1016.61 1016.17 1015.77 1015.21 1014.65 1014.02 1013.88 1013.60 1011.40 1011.16 1012.33 1012.16 1011.69 1011.53 1011.58 1011.29 1010.46 1009.71 1009.83 1009.50 1008.77 1008.15 1007.95 1007.41 1007.13 1005.65 1005.35 1004.24 1002.98 1002.23 1000.60 999.01 998.30 998.03 997.68 997.61 997.19 996.61 995.76 994.98 994.38 993.72 992.96 991.96 991.81 991.76 991.22 991.02 991.98
1017.12 1017.07 1016.86 1016.60 1016.46 1016.16 1015.83 1015.48 1015.04 1014.41 1014.20 1014.71 1014.86 1013.89 1011.89 1010.65 1010.29 1009.79 1008.35 1007.46 1007.12 1005.85 1006.82 1007.73 1008.01 1008.23 1008.05 1008.07 1007.45 1006.63 1005.14 1003.92 1002.04 1001.22 1001.01 999.57 998.68 998.30 998.17 997.91 997.60 996.91 996.01 994.93 994.11 993.38 992.79 992.56 991.87 991.48 991.34 990.84 991.60 992.37
1016.62 1016.61 1016.37 1016.13 1015.92 1015.67 1015.46 1015.21 1015.00 1014.74 1014.48 1014.48 1014.36 1012.35 1009.73 1008.62 1008.19 1006.91 1005.14 1004.27 1003.52 1003.30 1005.00 1005.80 1006.53 1007.09 1007.83 1008.00 1007.27 1005.78 1003.99 1002.15 1000.73 1000.41 999.52 998.65 999.20 999.11 999.01 998.22 997.18 996.41 995.55 994.82 994.04 993.45 992.71 992.25 991.66 991.12 991.14 991.46 992.25 993.34
1016.17 1016.04 1015.80 1015.57 1015.33 1015.21 1015.13 1014.95 1014.78 1014.47 1014.13 1013.95 1012.97 1011.30 1008.78 1006.66 1005.25 1003.69 1003.10 1002.53 1002.99 1003.06 1003.80 1004.42 1005.37 1006.22 1006.55 1006.95 1006.03 1004.19 1002.12 1000.85 1000.09 999.54 998.94 999.28 999.82 999.76 999.43 998.73 997.71 997.63 996.45 995.34 994.69 994.13 993.46 993.10 992.79 992.56 992.34 992.85 993.32 993.91
1015.69 1015.44 1015.11 1014.70 1014.23 1014.57 1014.80 1014.66 1014.45 1014.16 1014.09 1013.58 1012.65 1010.34 1007.25 1005.02 1003.75 1003.64 1003.39 1003.22 1002.92 1003.15 1003.17 1003.49 1003.66 1004.71 1004.82 1004.40 1003.59 1002.59 1001.59 1000.42 999.59 999.71 1000.24 1000.33 1000.28 1000.03 999.37 999.01 998.92 998.75 997.85 996.52 995.54 995.07 994.71 994.29 994.04 993.88 993.87 994.12 994.22 994.67
1015.36 1014.65 1013.71 1014.12 1014.26 1014.39 1014.38 1013.94 1013.73 1013.95 1013.76 1013.15 1011.99 1009.68 1007.37 1005.95 1004.41 1003.46 1003.46 1003.11 1002.83 1003.08 1002.73 1002.56 1002.20 1002.12 1002.47 1001.95 1001.11 1000.47 999.85 999.56 1000.09 1000.77 1000.90 1001.02 1000.77 1000.26 999.89 999.58 999.17 999.00 998.61 997.97 996.72 995.65 995.30 995.21 995.22 995.31 995.38 995.30 995.51 995.68
1015.17 1013.87 1013.78 1013.99 1014.05 1013.78 1013.47 1013.75 1013.58 1013.43 1012.81 1011.84 1010.23 1009.44 1008.91 1007.87 1006.92 1005.80 1004.91 1003.70 1003.49 1003.26 1002.14 1001.66 1001.06 1000.43 1000.48 999.91 999.50 998.87 998.82 999.84 1000.89 1001.37 1001.08 1001.25 1001.16 1000.91 1000.47 1000.14 999.65 998.96 998.53 998.14 997.56 996.65 995.85 995.77 996.32 996.50 996.43 996.28 996.31 996.85
1014.17 1013.14 1013.65 1013.76 1013.58 1012.90 1013.03 1013.22 1012.98 1012.48 1011.49 1010.19 1009.86 1009.16 1009.07 1008.76 1008.12 1007.47 1006.58 1005.43 1004.31 1003.20 1002.48 1001.90 1001.71 1000.32 999.62 999.07 998.31 998.97 999.72 1000.76 1001.67 1001.87 1001.69 1001.88 1001.71 1001.41 1000.96 1000.55 1000.13 999.46 999.07 998.76 998.19 997.73 997.31 996.84 996.80 997.30 997.67 997.80 997.76 997.79
1014.21 1013.70 1013.51 1013.53 1013.48 1013.09 1012.61 1012.58 1012.49 1011.30 1009.92 1009.36 1009.42 1009.30 1009.00 1008.62 1008.18 1007.86 1007.48 1007.01 1005.92 1004.20 1003.71 1002.41 1001.35 999.95 999.32 998.88 998.76 999.28 1000.17 1000.75 1001.76 1001.99 1002.33 1002.26 1001.90 1001.88 1001.58 1000.90 1000.43 999.82 999.47 999.23 998.84 998.18 998.47 998.37 997.86 997.62 997.15 997.08 997.76 998.46
1013.89 1013.31 1013.16 1013.00 1012.96 1012.56 1012.27 1011.75 1011.75 1010.86 1009.64 1009.36 1009.25 1009.14 1008.94 1008.50 1008.05 1007.89 1007.56 1007.27 1006.86 1005.44 1003.84 1002.34 1000.97 999.75 999.26 999.33 999.60 999.65 1000.16 1000.83 1001.05 1001.83 1001.88 1001.76 1001.78 1001.85 1001.81 1001.38 1000.74 999.92 1000.05 999.75 999.58 999.76 999.08 999.17 999.54 999.10 999.05 998.87 998.45 998.61
1012.71 1012.22 1012.48 1012.50 1012.39 1012.25 1011.78 1010.77 1010.44 1010.00 1009.56 1009.22 1008.82 1008.81 1008.43 1008.14 1007.96 1007.71 1007.60 1007.68 1007.45 1006.53 1005.21 1003.12 1001.84 1000.83 1000.69 1000.45 1000.65 1000.49 1000.31 1000.83 1000.78 1000.64 1000.93 1001.42 1001.42 1001.37 1001.27 1001.33 1000.99 1000.38 999.90 1000.31 1001.22 1000.34 1000.01 1000.23 1000.32 1000.64 1000.63 1000.35 1000.04 1000.14
1012.05 1012.15 1011.92 1012.11 1011.91 1011.61 1011.14 1009.95 1009.60 1009.49 1009.40 1008.63 1008.34 1008.00 1007.63 1007.38 1007.28 1007.26 1007.51 1007.59 1007.01 1005.76 1004.92 1003.96 1003.35 1002.89 1002.31 1001.83 1001.20 1001.40 1000.98 1000.66 1000.71 1000.90 1000.89 1001.08 1000.80 1001.00 1001.00 1000.97 1000.77 1000.90 1001.22 1001.25 1001.47 1001.59 1001.04 1000.56 1001.14 1000.95 1001.28 1001.50 1001.77 1001.49
1012.51 1012.08 1011.49 1011.41 1011.33 1010.76 1009.87 1009.30 1009.30 1008.95 1008.63 1007.77 1007.44 1007.08 1006.70 1006.55 1006.71 1007.17 1007.08 1006.67 1005.76 1004.93 1004.58 1004.24 1003.84 1003.59 1003.07 1002.54 1002.26 1001.48 1001.46 1001.26 1000.65 1000.50 1000.55 1000.82 1000.97 1001.36 1001.38 1001.40 1001.40 1001.76 1001.76 1001.55 1001.36 1001.29 1000.86 1001.26 1001.66 1001.86 1002.04 1002.20 1001.78 1001.99
1011.92 1011.23 1010.69 1010.37 1010.32 1009.57 1008.89 1008.73 1008.56 1008.22 1007.67 1007.08 1006.48 1005.92 1005.54 1005.72 1006.35 1006.41 1006.06 1005.45 1004.67 1004.15 1003.97 1003.60 1003.45 1003.32 1003.19 1003.09 1002.28 1001.68 1001.21 1001.05 1000.59 1000.28 1000.31 1000.45 1000.89 1001.01 1001.35 1001.47 1001.41 1001.17 1001.01 1000.97 1001.03 1001.45 1001.97 1002.52 1003.04 1002.24 1002.27 1002.66 1002.60 1002.25
1011.43 1010.65 1010.44 1009.61 1009.17 1008.75 1008.20 1007.74 1007.34 1007.04 1006.49 1005.90 1005.38 1004.95 1004.85 1005.25 1005.39 1005.45 1005.22 1004.44 1004.07 1003.60 1003.16 1002.92 1002.65 1002.58 1002.68 1002.47 1001.98 1001.38 1001.08 1000.44 1000.23 1000.38 1000.52 1000.62 1000.83 1001.04 1001.01 1000.94 1000.81 1000.78 1000.90 1001.02 1001.38 1001.68 1002.09 1002.36 1002.86 1002.91 1002.59 1002.80 1003.20 1003.12
1009.97 1008.63 1008.65 1007.81 1008.06 1008.05 1007.48 1007.00 1006.39 1005.93 1005.57 1005.04 1004.60 1004.35 1004.21 1004.33 1004.72 1005.05 1004.81 1004.43 1003.73 1003.28 1002.88 1002.61 1002.57 1002.53 1002.47 1002.31 1002.02 1001.37 1000.96 1000.70 1000.22 1000.11 1000.29 1000.56 1000.66 1000.82 1000.65 1000.59 1000.55 1000.41 1000.96 1001.19 1001.26 1001.55 1001.69 1002.09 1002.56 1003.07 1003.69 1003.81 1003.80 1003.78
1008.66 1007.27 1007.47 1007.82 1007.89 1007.82 1007.24 1006.51 1005.98 1005.58 1004.91 1004.41 1003.69 1003.26 1003.56 1004.10 1005.02 1005.36 1004.88 1004.44 1003.90 1003.24 1002.77 1002.50 1002.33 1002.39 1002.24 1001.97 1001.90 1000.90 1000.61 1000.50 1000.42 1000.26 1000.29 1000.50 1000.80 1001.12 1001.37 1001.39 1001.37 1001.74 1002.26 1002.37 1002.03 1002.10 1002.47 1003.03 1003.58 1003.98 1004.22 1004.20 1004.17 1004.35
1006.98 1006.71 1007.45 1007.44 1007.45 1007.12 1006.71 1006.02 1005.36 1004.92 1004.49 1003.69 1003.21 1002.75 1003.73 1004.58 1005.70 1005.83 1005.08 1004.39 1004.02 1003.34 1002.92 1002.57 1002.41 1002.21 1002.15 1002.18 1001.83 1001.60 1001.31 1000.80 1000.97 1001.26 1001.91 1002.00 1002.23 1002.42 1002.66 1002.52 1003.34 1004.02 1003.22 1003.17 1002.97 1002.41 1002.96 1003.55 1003.89 1004.31 1004.95 1004.99 1004.97 1005.11
1006.70 1007.00 1007.42 1007.08 1006.75 1006.37 1005.65 1005.26 1005.15 1004.68 1004.49 1003.59 1002.65 1003.13 1003.84 1004.31 1004.53 1004.24 1003.72 1003.19 1002.79 1002.35 1002.59 1002.60 1002.44 1002.47 1002.43 1002.42 1002.43 1002.38 1002.16 1001.82 1001.96 1002.32 1002.68 1003.29 1003.84 1004.21 1004.23 1004.22 1004.28 1003.62 1002.92 1003.34 1004.01 1003.29 1003.65 1004.52 1004.52 1004.90 1005.38 1005.63 1005.97 1006.32
1005.63 1005.60 1006.26 1006.14 1005.89 1005.33 1005.54 1005.41 1005.14 1004.73 1004.09 1003.44 1002.80 1002.72 1002.90 1002.92 1002.96 1002.72 1002.24 1001.46 1001.26 1000.63 1001.19 1002.03 1002.29 1002.47 1002.75 1002.82 1003.02 1003.16 1003.21 1003.17 1003.17 1003.32 1003.85 1004.34 1004.66 1004.82 1004.78 1004.66 1004.51 1004.57 1004.14 1004.44 1004.98 1005.46 1005.37 1004.92 1005.35 1005.30 1005.64 1005.97 1006.01 1006.41
1005.39 1005.91 1006.12 1005.88 1005.47 1005.16 1005.40 1005.23 1005.17 1004.49 1003.95 1003.78 1003.50 1002.73 1002.17 1001.71 1001.51 1001.20 1000.96 1000.56 1000.32 1000.83 1000.90 1000.84 1001.09 1002.04 1002.72 1003.10 1003.19 1003.33 1003.40 1003.79 1004.05 1004.27 1004.47 1004.74 1005.03 1005.17 1005.05 1005.15 1005.37 1005.46 1005.55 1005.49 1005.46 1005.46 1005.51 1005.50 1005.43 1005.45 1005.15 1005.01 1005.35 1005.74
1005.49 1005.85 1005.80 1005.47 1005.29 1005.38 1005.36 1005.40 1005.39 1005.01 1004.78 1004.43 1004.04 1003.52 1002.39 1001.95 1001.38 1001.24 1001.07 1000.60 1000.50 1000.48 1000.82 1001.05 1001.45 1001.60 1001.92 1002.50 1002.95 1003.83 1004.18 1004.59 1004.61 1004.85 1005.01 1005.16 1005.27 1005.23 1005.02 1004.91 1004.78 1005.09 1005.46 1005.60 1005.62 1005.78 1005.84 1005.85 1005.85 1005.70 1004.74 1004.93 1005.30 1005.67
1005.19 1005.23 1005.34 1004.95 1004.80 1005.14 1005.59 1005.66 1005.87 1005.81 1005.60 1005.32 1004.83 1004.12 1003.15 1002.62 1002.14 1001.82 1001.77 1001.26 1000.75 1000.79 1000.81 1000.79 1000.87 1001.41 1002.02 1002.34 1002.63 1003.19 1003.40 1003.56 1004.45 1004.97 1004.93 1005.01 1004.99 1004.99 1004.90 1004.65 1004.27 1004.68 1005.15 1005.40 1005.66 1005.95 1005.98 1005.77 1005.54 1005.13 1004.68 1004.93 1005.05 1005.32
Wind_Speed
10 10 11 11 11 11 11 11 11 11 11 11 11 9 9 9 8 8 8 5 8 8 15 18 18 17 11 11 5 9 10 12 11 18 16 13 15 19 20 22 27 22 21 16 19 19 17 22 18 21 13 17 9 18
10 10 11 12 11 11 11 11 12 12 12 12 11 11 11 10 9 9 10 3 4 5 8 16 21 20 24 24 12 3 8 11 7 11 15 12 12 14 20 17 22 22 22 17 20 16 9 12 19 15 16 13 14 7
10 11 11 12 12 11 12 12 12 12 13 12 12 12 13 12 11 10 11 6 3 3 9 16 17 22 23 24 19 9 5 8 4 8 12 9 13 15 15 17 19 21 24 20 21 21 23 18 18 20 15 15 12 10
11 11 11 12 12 12 13 13 13 13 13 13 13 13 13 13 12 11 10 7 3 1 5 14 10 15 16 21 24 22 15 11 5 13 9 7 9 8 12 13 17 12 19 21 20 21 21 24 20 16 19 16 12 8
11 12 12 12 12 14 15 15 14 14 14 14 14 14 14 13 11 11 11 11 6 5 4 11 22 24 25 18 18 22 17 7 3 9 6 8 9 6 9 11 11 16 15 18 13 21 14 14 22 21 14 18 19 11
11 11 12 12 13 14 14 15 15 15 15 15 15 15 14 12 9 6 5 4 7 4 1 5 6 16 12 21 17 21 16 8 2 6 7 9 15 5 8 11 16 16 14 3 9 13 18 23 20 24 22 14 11 20
12 12 12 12 13 14 14 15 16 16 15 15 14 15 15 11 8 7 4 4 8 5 2 5 6 7 15 15 10 11 9 5 5 4 6 11 10 6 13 14 13 18 4 7 10 10 11 13 16 24 22 24 15 16
12 12 13 12 13 15 15 16 17 17 17 15 15 15 14 8 8 8 9 15 9 2 3 4 6 5 4 7 5 5 7 4 6 5 7 8 7 5 11 19 19 7 7 14 13 13 16 15 12 16 20 24 20 16
12 12 13 13 14 15 15 17 18 17 16 14 14 14 6 7 5 3 14 16 4 3 3 5 2 4 3 3 2 4 6 8 6 7 5 5 8 10 12 17 8 4 8 12 15 13 14 16 15 18 17 24 17 16
12 12 12 13 14 15 14 16 17 16 14 14 8 8 5 4 19 15 4 5 4 4 5 4 2 5 3 1 3 3 4 4 6 7 5 7 12 15 12 6 7 10 10 12 15 15 16 17 19 20 18 17 13 15
11 12 12 12 14 14 14 15 14 13 11 2 4 3 6 11 6 4 5 7 7 6 7 4 5 5 2 2 3 3 4 5 4 6 7 5 11 15 17 6 7 9 12 14 16 16 16 17 16 17 16 19 14 15
12 12 11 12 13 12 13 11 12 7 4 2 3 7 5 6 7 7 7 7 8 3 9 5 5 4 1 1 1 3 4 4 6 10 7 5 3 6 4 4 5 10 11 12 12 11 12 16 15 14 18 13 13 12
11 12 11 12 12 11 11 9 8 7 10 1 3 6 5 5 2 7 8 6 5 6 4 3 2 3 3 1 3 4 5 5 7 5 6 3 5 5 1 5 5 4 6 6 5 5 5 8 11 13 11 10 11 12
11 12 12 13 14 11 7 7 7 7 5 2 4 4 6 7 7 9 9 3 2 0 5 3 4 3 3 4 4 5 5 4 4 6 4 7 6 4 4 2 6 12 14 7 6 5 2 4 6 4 5 7 10 14
12 14 15 17 17 11 6 9 9 5 2 3 4 6 8 9 5 3 5 5 3 4 4 4 3 6 5 5 6 4 2 3 5 3 1 5 5 4 4 7 7 7 10 11 8 6 5 5 5 5 5 7 9 11
11 19 7 7 4 3 9 12 3 2 2 3 5 7 8 9 8 4 5 5 1 4 5 6 5 6 6 3 3 3 4 1 1 3 4 6 6 8 9 9 10 10 9 9 11 8 9 8 7 6 6 7 9 11
10 5 9 6 5 11 10 3 2 4 4 6 5 4 7 8 8 8 9 6 2 6 7 3 4 3 2 3 4 4 5 5 7 3 2 6 8 9 9 9 11 12 13 12 11 11 9 10 9 8 9 7 9 8
7 4 5 7 11 7 3 3 3 4 7 7 4 3 2 3 4 5 7 9 6 7 6 3 4 5 2 3 4 8 8 8 4 2 4 5 5 7 8 10 11 12 13 13 10 12 12 9 9 8 9 8 6 7
11 14 19 17 7 3 2 4 3 5 6 2 1 1 3 4 4 6 6 8 10 9 4 5 6 5 5 4 5 6 6 9 4 3 5 5 5 5 7 9 7 9 12 12 12 9 8 10 8 7 5 5 8 7
17 21 17 10 7 3 3 3 2 4 4 2 2 2 3 4 2 1 3 3 3 5 6 5 7 7 3 5 5 4 4 6 11 7 5 4 3 4 5 6 7 8 7 10 8 8 5 8 8 9 9 7 5 4
15 3 6 4 3 3 3 3 5 3 3 3 1 3 3 2 3 2 2 3 1 2 3 7 9 7 9 7 5 7 2 5 5 1 10 6 2 4 4 4 7 8 9 8 7 7 7 6 7 6 7 9 6 4
1 1 3 4 2 3 4 5 3 2 3 3 3 3 3 2 3 2 4 2 3 5 6 7 8 8 7 9 9 8 9 1 3 5 4 5 4 4 4 4 6 6 6 4 4 4 6 5 6 6 4 4 3 4
6 4 4 3 3 3 4 2 3 3 3 2 2 3 3 2 2 4 2 3 4 4 5 5 8 10 12 10 8 10 10 6 6 6 5 3 1 0 2 2 3 0 5 5 2 4 5 6 2 4 4 3 4 1
3 4 4 3 5 4 2 3 3 3 3 3 3 3 2 2 4 2 3 2 4 3 5 8 7 6 6 8 9 9 10 10 9 7 5 4 4 4 4 5 5 5 5 3 4 4 4 4 3 5 1 3 5 4
4 4 4 5 4 4 3 3 4 3 3 3 3 2 1 3 2 1 2 2 3 5 5 4 4 5 6 7 8 9 11 11 10 10 7 6 5 6 6 7 6 6 5 4 4 4 3 2 3 4 6 3 4 3
5 5 5 3 1 3 2 3 3 2 2 2 2 2 2 1 2 3 4 7 5 4 6 4 1 2 4 4 6 7 7 8 8 8 8 8 7 6 7 6 6 3 2 4 4 4 4 4 5 5 4 2 2 4
4 3 2 2 1 3 4 5 4 3 2 3 4 4 3 4 6 6 6 6 4 5 5 4 2 3 2 3 6 7 3 7 7 5 3 5 4 4 3 5 5 5 4 3 2 2 3 2 1 2 2 2 3 4
5 4 3 4 3 3 4 4 2 3 3 3 4 5 4 4 6 4 3 5 5 5 5 4 4 3 3 2 0 2 3 5 6 4 5 3 5 7 6 5 5 5 4 8 6 4 7 7 6 6 5 5 6 7
3 3 1 5 5 5 3 2 3 2 3 4 5 5 2 4 7 7 6 5 5 5 3 6 5 2 4 4 4 4 3 4 6 6 5 3 2 2 3 3 3 2 5 10 18 14 15 10 11 11 11 9 9 8
3 1 2 4 4 3 3 2 2 3 2 3 3 6 5 6 9 10 8 7 6 5 10 9 8 9 7 7 6 6 4 2 1 3 5 5 4 4 4 5 6 5 6 8 7 11 13 13 12 11 10 8 10 10
2 3 2 3 3 5 1 1 2 1 2 4 6 5 5 3 6 4 4 5 9 12 9 10 12 14 8 6 6 7 7 9 11 12 9 6 6 4 6 6 4 5 5 5 4 5 6 5 7 7 10 11 13 12
4 4 2 2 1 1 0 2 3 4 5 4 4 5 5 2 10 7 9 6 8 10 11 12 11 9 7 8 12 10 12 11 7 6 10 6 4 2 2 1 5 8 9 6 5 5 5 4 1 4 8 11 14 13
1 2 5 3 4 4 3 2 3 3 3 4 4 4 3 2 4 4 5 8 6 8 8 9 9 11 12 9 8 8 11 10 12 9 8 3 3 2 3 7 9 12 12 9 8 10 13 11 8 10 9 10 9 10
Wind_Direction
282 285 291 297 296 297 301 304 306 308 308 305 309 311 310 313 313 283 279 238 230 264 277 284 274 271 272 240 255 352 305 237 258 225 230 219 237 223 228 215 200 200 202 211 223 218 223 229 224 208 201 220 253 180
281 283 287 293 295 297 297 299 303 303 302 302 303 301 294 291 297 297 273 315 248 232 271 287 280 273 251 248 256 207 293 309 301 245 233 240 232 232 224 212 208 203 213 214 215 218 229 251 247 230 223 206 226 212
275 279 284 290 290 293 293 293 295 298 299 300 299 296 289 285 282 276 288 279 248 260 271 247 252 250 245 248 248 229 235 224 329 336 299 259 242 234 223 225 200 200 215 220 233 211 227 237 240 249 194 225 232 203
278 279 279 284 287 291 291 290 292 295 294 295 296 294 292 285 281 276 269 264 169 299 270 282 308 276 248 237 227 221 224 273 326 302 280 271 254 256 245 219 243 179 203 217 231 245 215 225 245 261 193 213 193 174
280 279 279 285 290 292 294 293 293 290 290 291 292 290 288 290 291 280 262 258 214 174 277 296 303 266 243 235 228 202 202 229 1 302 297 248 257 321 278 299 270 235 195 205 213 219 234 218 228 250 249 217 166 181
274 279 280 285 290 292 292 291 292 291 289 289 288 285 282 284 292 292 269 95 116 117 269 281 295 277 259 216 209 183 190 171 158 317 294 286 287 336 259 251 249 260 259 348 230 218 222 215 236 233 244 253 233 183
279 277 277 285 291 289 291 294 293 292 290 287 283 279 274 263 258 236 330 44 136 123 242 280 270 271 235 173 180 157 138 173 162 244 248 271 267 227 268 265 226 239 7 334 303 314 285 255 237 233 225 232 218 214
283 283 284 287 289 291 296 297 295 295 296 292 287 284 281 257 254 264 226 144 153 180 215 262 278 276 180 158 142 140 154 170 180 262 254 245 249 221 245 246 260 324 329 290 279 269 268 279 281 262 255 228 204 204
281 283 287 290 291 292 298 298 299 300 299 291 286 290 228 217 209 111 129 147 179 260 280 228 314 291 97 192 99 185 182 177 164 219 238 248 225 218 222 250 297 296 293 300 301 290 274 269 268 265 265 271 194 199
285 284 284 288 293 296 302 302 304 306 297 289 270 203 195 63 120 136 168 177 209 214 220 253 182 244 207 154 184 226 190 176 181 203 206 245 244 244 262 256 268 279 283 279 272 268 255 251 246 250 249 255 234 201
283 284 282 289 293 299 306 307 312 315 270 128 302 333 78 144 213 225 209 219 181 221 197 223 243 268 89 217 180 234 180 170 240 167 215 232 228 219 228 236 261 278 272 266 264 260 260 272 248 236 240 250 219 191
287 284 283 288 290 299 307 310 316 284 10 56 269 280 261 221 203 215 228 194 209 248 146 174 215 209 161 5 292 196 252 179 224 157 189 231 115 97 189 244 272 267 270 274 270 271 250 231 256 230 233 216 199 173
287 283 283 283 285 292 297 312 314 300 268 153 229 241 199 209 300 223 223 212 225 161 133 183 119 138 122 79 274 255 242 222 160 192 210 130 117 99 113 331 285 290 300 317 283 268 262 230 241 222 208 180 175 180
289 286 284 279 274 277 272 317 307 280 270 258 259 251 232 194 227 217 255 21 52 31 160 223 142 166 155 178 227 252 218 219 214 199 225 116 77 43 75 221 10 0 339 26 27 16 88 168 179 181 164 178 182 175
294 287 282 277 266 243 244 291 293 256 243 253 241 235 238 257 314 296 319 308 236 269 240 248 202 168 204 212 230 211 201 240 235 140 107 80 73 67 86 91 78 55 356 360 42 39 68 110 119 122 141 179 170 169
304 291 241 159 155 222 266 280 230 183 226 236 241 259 265 270 265 226 201 259 270 255 269 243 249 212 182 232 281 215 226 185 83 58 111 115 72 67 58 54 59 60 52 35 359 48 56 73 81 111 151 150 158 168
292 252 151 185 249 278 271 227 149 214 239 225 237 252 287 293 312 327 327 323 80 259 257 312 265 10 313 234 229 230 24 123 115 27 114 84 66 65 57 57 50 45 44 41 39 22 60 81 91 83 86 65 112 129
253 178 137 354 341 311 165 195 231 236 242 239 246 287 232 228 269 284 298 311 304 259 270 332 301 253 230 280 291 80 97 109 82 97 103 107 70 57 55 40 46 49 45 39 33 52 29 37 80 92 105 92 64 104
295 309 309 304 302 305 255 198 235 260 243 254 259 250 267 269 254 255 266 289 298 305 282 234 238 246 231 297 11 81 125 129 137 113 115 93 59 48 43 38 21 48 39 37 25 42 55 32 41 32 38 103 117 140
280 273 273 286 210 230 247 219 219 265 274 352 220 227 241 256 294 242 258 252 288 306 236 235 257 277 329 29 71 350 128 160 147 149 133 108 88 87 64 36 14 51 53 14 40 23 39 63 33 24 27 20 33 115
272 166 195 224 206 245 279 257 224 231 277 258 204 215 248 225 247 228 182 128 161 238 256 270 276 271 301 353 2 339 345 193 240 155 149 137 124 73 64 51 30 30 30 20 356 352 34 35 53 43 21 6 24 17
255 63 274 165 252 222 252 236 273 2 260 277 252 219 255 232 204 195 114 178 227 229 235 258 257 272 289 292 263 249 312 306 189 137 128 113 179 131 40 22 23 13 343 340 14 350 333 35 29 350 46 350 344 354
267 211 225 216 244 232 259 73 242 215 256 253 228 241 223 219 84 127 226 222 259 229 225 243 253 270 274 274 312 255 242 254 235 217 168 220 103 320 302 288 152 241 291 275 321 354 332 28 50 340 13 289 278 258
165 260 244 235 205 266 237 226 217 251 253 244 235 257 238 118 154 218 247 241 237 245 259 245 229 228 227 237 247 223 237 230 237 240 248 226 256 256 251 271 271 250 250 301 326 332 301 308 343 306 127 252 266 263
247 227 208 257 250 246 247 237 223 227 253 233 251 273 179 157 189 225 265 266 273 297 295 298 274 206 194 207 223 223 220 228 224 230 228 241 255 269 269 263 272 283 290 282 253 255 332 17 342 317 304 214 268 280
249 203 209 301 319 241 270 272 275 307 285 273 258 267 274 300 48 354 329 323 316 314 332 344 307 141 185 195 209 226 199 223 222 226 223 221 231 245 267 273 271 256 268 321 338 315 337 8 331 336 316 298 69 129
267 228 147 104 271 279 267 252 248 262 280 312 310 358 23 50 29 353 319 338 315 319 336 347 356 194 227 185 215 248 297 187 211 213 243 196 205 222 244 256 273 29 22 289 318 354 356 48 42 35 50 76 89 113
263 5 311 1 295 236 263 278 294 357 312 307 263 46 52 49 39 317 290 300 313 310 326 6 13 28 54 58 301 202 227 163 172 129 65 54 25 2 349 352 49 28 332 26 342 84 86 75 87 91 96 91 83 89
251 168 184 274 253 252 253 356 357 359 344 305 31 68 101 131 173 176 226 229 243 224 135 56 40 31 46 53 64 58 50 113 155 165 176 159 141 43 5 46 26 26 75 82 53 50 74 93 99 95 87 77 90 107
9 322 336 276 261 24 40 351 8 345 331 342 336 132 144 152 184 211 245 273 292 334 115 116 90 69 60 79 80 71 49 63 96 129 141 134 120 105 100 83 46 24 57 85 77 108 130 117 124 104 104 119 120 112
336 38 246 255 307 49 109 31 31 0 29 33 13 23 65 74 84 60 19 29 68 75 50 59 66 66 69 61 73 66 71 69 80 91 92 96 93 103 113 95 81 89 83 77 66 68 68 64 98 118 125 109 116 126
168 206 256 276 79 89 86 54 5 27 18 12 359 344 353 76 78 53 4 78 84 78 78 77 70 78 126 159 98 98 104 96 83 85 88 87 77 70 343 311 140 143 135 131 115 110 106 96 31 302 137 133 135 137
94 225 225 243 178 114 77 54 39 8 18 6 336 323 319 10 70 58 39 358 46 69 63 65 80 103 103 88 95 131 162 140 129 120 141 161 101 81 203 211 146 140 148 148 137 134 140 153 180 218 157 153 159 159